• In Czech Republic
  • List of Countries
  • For 7 days
  • Water Temperature
  • Satellite Maps
  • Weather Map
  • Weather Widgets
  • user-avatar
    Login

    Hourly Weather Garissa

    Today, 16 December, Saturday

    Time Temperature Precipitation Wind Pressure Humidity
    00:00 +30°C° 0 mm 6 mps 744 mmHg 60%
    01:00 +29°C° 0 mm 5 mps 744 mmHg 63%
    02:00 +28°C° 0 mm 4 mps 744 mmHg 66%
    03:00 +28°C° 0 mm 4 mps 744 mmHg 69%
    04:00 +28°C° 0 mm 3 mps 745 mmHg 71%
    05:00 +27°C° 0 mm 2 mps 745 mmHg 73%
    06:00 +27°C° 0 mm 1 mps 745 mmHg 76%
    07:00 +28°C° 0 mm 1 mps 746 mmHg 73%
    08:00 +28°C° 0 mm 1 mps 746 mmHg 70%
    09:00 +29°C° 0 mm 1 mps 746 mmHg 67%
    10:00 +30°C° 0 mm 2 mps 746 mmHg 61%
    11:00 +31°C° 0 mm 2 mps 746 mmHg 55%
    12:00 +34°C° 0 mm 2 mps 745 mmHg 49%
    13:00 +35°C° 0 mm 2 mps 744 mmHg 46%
    14:00 +36°C° 0 mm 3 mps 744 mmHg 43%
    15:00 +36°C° 0 mm 3 mps 743 mmHg 40%
    16:00 +36°C° 0 mm 2 mps 743 mmHg 41%
    17:00 +36°C° 0 mm 2 mps 743 mmHg 41%
    18:00 +36°C° 0 mm 2 mps 743 mmHg 42%
    19:00 +35°C° 0 mm 3 mps 743 mmHg 45%
    20:00 +34°C° 0 mm 4 mps 744 mmHg 47%
    21:00 +33°C° 0 mm 5 mps 745 mmHg 50%
    22:00 +32°C° 0 mm 5 mps 745 mmHg 55%
    23:00 +30°C° 0 mm 5 mps 745 mmHg 60%

    Tomorrow, 17 December, Sunday

    Time Temperature Precipitation Wind Pressure Humidity
    00:00 +29°C° 0 mm 5 mps 746 mmHg 65%
    01:00 +28°C° 0 mm 5 mps 745 mmHg 69%
    02:00 +28°C° 0 mm 4 mps 745 mmHg 72%
    03:00 +27°C° 0 mm 3 mps 745 mmHg 75%
    04:00 +27°C° 0 mm 3 mps 745 mmHg 77%
    05:00 +27°C° 0 mm 3 mps 745 mmHg 79%
    06:00 +27°C° 0 mm 2 mps 746 mmHg 81%
    07:00 +27°C° 0 mm 3 mps 746 mmHg 79%
    08:00 +27°C° 0 mm 3 mps 746 mmHg 77%
    09:00 +28°C° 0 mm 3 mps 747 mmHg 74%
    10:00 +29°C° 0 mm 3 mps 747 mmHg 72%
    11:00 +29°C° 0 mm 2 mps 746 mmHg 69%
    12:00 +30°C° 0 mm 2 mps 746 mmHg 66%
    13:00 +30°C° 0 mm 2 mps 745 mmHg 63%
    14:00 +31°C° 0 mm 2 mps 744 mmHg 60%
    15:00 +32°C° 0 mm 2 mps 743 mmHg 57%
    16:00 +32°C° 0 mm 2 mps 743 mmHg 57%
    17:00 +32°C° 0 mm 2 mps 743 mmHg 56%
    18:00 +32°C° 0 mm 2 mps 743 mmHg 56%
    19:00 +31°C° 0.1 mm 2 mps 744 mmHg 59%
    20:00 +30°C° 0.1 mm 2 mps 745 mmHg 62%
    21:00 +30°C° 0.1 mm 2 mps 745 mmHg 65%
    22:00 +29°C° 0.2 mm 3 mps 745 mmHg 68%
    23:00 +29°C° 0.2 mm 3 mps 746 mmHg 72%

    Day after tomorrow, 18 December, Monday

    Time Temperature Precipitation Wind Pressure Humidity
    00:00 +28°C° 0.2 mm 4 mps 746 mmHg 75%
    01:00 +28°C° 0.2 mm 3 mps 745 mmHg 77%
    02:00 +27°C° 0.2 mm 3 mps 745 mmHg 79%
    03:00 +27°C° 0.2 mm 3 mps 745 mmHg 82%
    04:00 +27°C° 0.3 mm 2 mps 745 mmHg 82%
    05:00 +26°C° 0.3 mm 2 mps 745 mmHg 83%
    06:00 +26°C° 0.3 mm 1 mps 745 mmHg 84%
    07:00 +28°C° 0.1 mm 3 mps 746 mmHg 77%
    08:00 +29°C° 0.1 mm 4 mps 746 mmHg 69%
    09:00 +32°C° 0.1 mm 5 mps 747 mmHg 62%
    10:00 +33°C° 0.2 mm 5 mps 747 mmHg 57%
    11:00 +34°C° 0.2 mm 6 mps 746 mmHg 52%
    12:00 +35°C° 0.2 mm 6 mps 746 mmHg 47%
    13:00 +35°C° 0.2 mm 6 mps 745 mmHg 46%
    14:00 +36°C° 0.2 mm 6 mps 744 mmHg 46%
    15:00 +36°C° 0.2 mm 5 mps 743 mmHg 45%
    16:00 +35°C° 0.1 mm 4 mps 743 mmHg 45%
    17:00 +35°C° 0.1 mm 3 mps 743 mmHg 46%
    18:00 +35°C° 0.1 mm 2 mps 743 mmHg 47%
    19:00 +34°C° 0 mm 3 mps 743 mmHg 51%
    20:00 +33°C° 0 mm 4 mps 744 mmHg 55%
    21:00 +30°C° 0 mm 5 mps 745 mmHg 59%
    22:00 +30°C° 0.2 mm 5 mps 745 mmHg 64%
    23:00 +29°C° 0.2 mm 5 mps 745 mmHg 70%

    19 December, Tuesday

    Time Temperature Precipitation Wind Pressure Humidity
    00:00 +28°C° 0.2 mm 5 mps 745 mmHg 75%
    01:00 +28°C° 0.1 mm 5 mps 745 mmHg 76%
    02:00 +27°C° 0.1 mm 4 mps 744 mmHg 78%
    03:00 +27°C° 0.1 mm 4 mps 744 mmHg 80%
    04:00 +27°C° 0.2 mm 4 mps 744 mmHg 81%
    05:00 +27°C° 0.2 mm 4 mps 745 mmHg 82%
    06:00 +26°C° 0.2 mm 3 mps 745 mmHg 83%
    07:00 +27°C° 0.1 mm 4 mps 746 mmHg 79%
    08:00 +28°C° 0.1 mm 5 mps 746 mmHg 74%
    09:00 +29°C° 0.1 mm 5 mps 747 mmHg 69%
    10:00 +32°C° 0 mm 6 mps 747 mmHg 61%
    11:00 +34°C° 0 mm 6 mps 746 mmHg 52%
    12:00 +35°C° 0 mm 6 mps 746 mmHg 44%
    13:00 +36°C° 0 mm 6 mps 745 mmHg 41%
    14:00 +36°C° 0 mm 6 mps 744 mmHg 38%
    15:00 +36°C° 0 mm 6 mps 743 mmHg 36%
    16:00 +36°C° 0 mm 5 mps 743 mmHg 36%
    17:00 +35°C° 0 mm 4 mps 743 mmHg 36%
    18:00 +35°C° 0 mm 3 mps 743 mmHg 36%
    19:00 +34°C° 0 mm 3 mps 744 mmHg 37%
    20:00 +32°C° 0 mm 2 mps 745 mmHg 38%
    21:00 +31°C° 0 mm 2 mps 745 mmHg 39%
    22:00 +30°C° 0 mm 3 mps 745 mmHg 47%
    23:00 +29°C° 0 mm 4 mps 745 mmHg 56%

    20 December, Wednesday

    Time Temperature Precipitation Wind Pressure Humidity
    00:00 +28°C° 0 mm 5 mps 745 mmHg 64%
    01:00 +28°C° 0 mm 4 mps 745 mmHg 68%
    02:00 +27°C° 0 mm 3 mps 745 mmHg 71%
    03:00 +27°C° 0 mm 2 mps 745 mmHg 75%
    04:00 +26°C° 0 mm 2 mps 745 mmHg 77%
    05:00 +26°C° 0 mm 1 mps 746 mmHg 78%
    06:00 +26°C° 0 mm 1 mps 746 mmHg 80%
    07:00 +27°C° 0 mm 2 mps 747 mmHg 77%
    08:00 +27°C° 0 mm 2 mps 747 mmHg 73%
    09:00 +28°C° 0 mm 3 mps 748 mmHg 70%
    10:00 +29°C° 0 mm 3 mps 747 mmHg 65%
    11:00 +30°C° 0 mm 4 mps 747 mmHg 60%
    12:00 +32°C° 0 mm 4 mps 746 mmHg 54%
    13:00 +34°C° 0 mm 4 mps 746 mmHg 48%
    14:00 +35°C° 0 mm 4 mps 745 mmHg 41%
    15:00 +36°C° 0 mm 5 mps 744 mmHg 34%
    16:00 +36°C° 0 mm 4 mps 744 mmHg 35%
    17:00 +35°C° 0 mm 3 mps 744 mmHg 35%
    18:00 +35°C° 0 mm 2 mps 744 mmHg 36%
    19:00 +34°C° 0 mm 2 mps 745 mmHg 36%
    20:00 +32°C° 0 mm 2 mps 745 mmHg 37%
    21:00 +31°C° 0 mm 2 mps 746 mmHg 38%
    22:00 +30°C° 0 mm 3 mps 746 mmHg 45%
    23:00 +29°C° 0 mm 4 mps 746 mmHg 52%

    21 December, Thursday

    Time Temperature Precipitation Wind Pressure Humidity
    00:00 +28°C° 0 mm 5 mps 746 mmHg 60%
    01:00 +28°C° 0 mm 4 mps 746 mmHg 64%
    02:00 +27°C° 0 mm 3 mps 746 mmHg 69%
    03:00 +27°C° 0 mm 2 mps 745 mmHg 74%
    04:00 +26°C° 0 mm 2 mps 746 mmHg 75%
    05:00 +26°C° 0 mm 2 mps 746 mmHg 77%
    06:00 +26°C° 0 mm 1 mps 747 mmHg 79%
    07:00 +27°C° 0 mm 1 mps 747 mmHg 76%
    08:00 +28°C° 0 mm 2 mps 748 mmHg 72%
    09:00 +29°C° 0 mm 2 mps 748 mmHg 69%
    10:00 +30°C° 0 mm 2 mps 747 mmHg 65%
    11:00 +30°C° 0 mm 3 mps 747 mmHg 61%
    12:00 +31°C° 0 mm 3 mps 746 mmHg 57%
    13:00 +33°C° 0.1 mm 4 mps 746 mmHg 52%
    14:00 +34°C° 0.1 mm 4 mps 745 mmHg 46%
    15:00 +35°C° 0.1 mm 4 mps 744 mmHg 41%
    16:00 +35°C° 0 mm 4 mps 744 mmHg 42%
    17:00 +34°C° 0 mm 3 mps 745 mmHg 44%
    18:00 +34°C° 0 mm 2 mps 745 mmHg 45%
    19:00 +33°C° 0.2 mm 3 mps 745 mmHg 51%
    20:00 +31°C° 0.2 mm 3 mps 746 mmHg 56%
    21:00 +30°C° 0.2 mm 3 mps 746 mmHg 61%
    22:00 +29°C° 0.7 mm 3 mps 746 mmHg 66%
    23:00 +28°C° 0.7 mm 3 mps 746 mmHg 70%
    Show more